• In Hungary
  • List of Countries
  • For 7 days
  • Water Temperature
  • Satellite Maps
  • Weather Map
  • News
  • Weather Widgets
  • user-avatar
    Login

    Hourly Weather Bierkowo

    Today, 20 November, Monday

    Time Temperature Precipitation Wind Pressure Humidity
    00:00 +2°C° 0.6 mm 9 mps 746 mmHg 83%
    01:00 +2°C° 0.6 mm 10 mps 747 mmHg 82%
    02:00 +1°C° 0.1 mm 9 mps 747 mmHg 81%
    03:00 0°C° 0.1 mm 8 mps 748 mmHg 80%
    04:00 0°C° 0.1 mm 7 mps 749 mmHg 80%
    05:00 0°C° 0 mm 7 mps 749 mmHg 79%
    06:00 -1°C° 0 mm 7 mps 750 mmHg 78%
    07:00 -1°C° 0 mm 7 mps 750 mmHg 77%
    08:00 -1°C° 0 mm 7 mps 751 mmHg 75%
    09:00 -1°C° 0 mm 6 mps 751 mmHg 73%
    10:00 +1°C° 0 mm 6 mps 751 mmHg 71%
    11:00 +1°C° 0 mm 6 mps 751 mmHg 69%
    12:00 +1°C° 0 mm 6 mps 752 mmHg 68%
    13:00 +1°C° 0 mm 6 mps 752 mmHg 67%
    14:00 +1°C° 0 mm 5 mps 752 mmHg 70%
    15:00 +1°C° 0 mm 5 mps 752 mmHg 72%
    16:00 0°C° 0 mm 4 mps 752 mmHg 75%
    17:00 +1°C° 0 mm 3 mps 752 mmHg 77%
    18:00 +1°C° 0 mm 3 mps 752 mmHg 79%
    19:00 +1°C° 0 mm 2 mps 752 mmHg 80%
    20:00 +1°C° 0 mm 2 mps 752 mmHg 81%
    21:00 +2°C° 0 mm 1 mps 753 mmHg 81%
    22:00 +2°C° 0 mm 1 mps 753 mmHg 82%
    23:00 +2°C° 0 mm 1 mps 753 mmHg 82%

    Tomorrow, 21 November, Tuesday

    Time Temperature Precipitation Wind Pressure Humidity
    00:00 +2°C° 0 mm 1 mps 753 mmHg 83%
    01:00 +2°C° 0 mm 1 mps 753 mmHg 83%
    02:00 +1°C° 0 mm 1 mps 752 mmHg 83%
    03:00 -1°C° 0 mm 2 mps 752 mmHg 83%
    04:00 -1°C° 0 mm 2 mps 752 mmHg 84%
    05:00 -1°C° 0 mm 2 mps 752 mmHg 83%
    06:00 -1°C° 0 mm 2 mps 753 mmHg 83%
    07:00 -1°C° 0 mm 2 mps 753 mmHg 83%
    08:00 +1°C° 0 mm 2 mps 753 mmHg 80%
    09:00 +1°C° 0 mm 2 mps 753 mmHg 77%
    10:00 +2°C° 0 mm 2 mps 753 mmHg 74%
    11:00 +3°C° 0 mm 2 mps 753 mmHg 71%
    12:00 +4°C° 0 mm 1 mps 753 mmHg 69%
    13:00 +5°C° 0 mm 1 mps 753 mmHg 66%
    14:00 +4°C° 0 mm 1 mps 753 mmHg 70%
    15:00 +3°C° 0 mm 1 mps 754 mmHg 75%
    16:00 +2°C° 0 mm 1 mps 754 mmHg 79%
    17:00 +2°C° 0 mm 1 mps 754 mmHg 80%
    18:00 +2°C° 0 mm 1 mps 754 mmHg 81%
    19:00 +1°C° 0 mm 1 mps 754 mmHg 82%
    20:00 -1°C° 0 mm 2 mps 754 mmHg 82%
    21:00 -1°C° 0 mm 2 mps 754 mmHg 82%
    22:00 -1°C° 0 mm 2 mps 755 mmHg 81%
    23:00 -1°C° 0 mm 3 mps 755 mmHg 81%

    Day after tomorrow, 22 November, Wednesday

    Time Temperature Precipitation Wind Pressure Humidity
    00:00 -1°C° 0 mm 3 mps 754 mmHg 81%
    01:00 -1°C° 0 mm 3 mps 754 mmHg 81%
    02:00 -2°C° 0 mm 4 mps 754 mmHg 80%
    03:00 -1°C° 0 mm 4 mps 754 mmHg 78%
    04:00 -1°C° 0 mm 5 mps 753 mmHg 77%
    05:00 -1°C° 0.3 mm 6 mps 753 mmHg 78%
    06:00 -1°C° 0.3 mm 6 mps 753 mmHg 79%
    07:00 -1°C° 0.3 mm 7 mps 752 mmHg 80%
    08:00 -1°C° 0.7 mm 7 mps 752 mmHg 82%
    09:00 0°C° 0.7 mm 7 mps 752 mmHg 85%
    10:00 0°C° 0.7 mm 8 mps 752 mmHg 87%
    11:00 0°C° 0.5 mm 7 mps 751 mmHg 88%
    12:00 +2°C° 0.5 mm 7 mps 751 mmHg 90%
    13:00 +2°C° 0.5 mm 7 mps 751 mmHg 91%
    14:00 +2°C° 0.7 mm 7 mps 750 mmHg 92%
    15:00 +3°C° 0.7 mm 7 mps 750 mmHg 93%
    16:00 +3°C° 0.7 mm 7 mps 750 mmHg 94%
    17:00 +4°C° 0.5 mm 7 mps 750 mmHg 94%
    18:00 +4°C° 0.5 mm 7 mps 751 mmHg 93%
    19:00 +5°C° 0.5 mm 7 mps 751 mmHg 93%
    20:00 +4°C° 0 mm 7 mps 751 mmHg 93%
    21:00 +4°C° 0 mm 7 mps 751 mmHg 93%
    22:00 +4°C° 0 mm 7 mps 751 mmHg 93%
    23:00 +4°C° 0 mm 6 mps 751 mmHg 92%

    23 November, Thursday

    Time Temperature Precipitation Wind Pressure Humidity
    00:00 +3°C° 0 mm 6 mps 751 mmHg 92%
    01:00 +3°C° 0 mm 6 mps 751 mmHg 91%
    02:00 +3°C° 0 mm 7 mps 751 mmHg 90%
    03:00 +3°C° 0 mm 7 mps 751 mmHg 88%
    04:00 +3°C° 0 mm 7 mps 750 mmHg 87%
    05:00 +2°C° 0 mm 8 mps 750 mmHg 84%
    06:00 +2°C° 0 mm 8 mps 750 mmHg 82%
    07:00 +2°C° 0 mm 8 mps 750 mmHg 80%
    08:00 +4°C° 0 mm 8 mps 750 mmHg 78%
    09:00 +5°C° 0 mm 8 mps 751 mmHg 75%
    10:00 +6°C° 0 mm 8 mps 751 mmHg 72%
    11:00 +7°C° 0 mm 8 mps 751 mmHg 72%
    12:00 +9°C° 0 mm 8 mps 751 mmHg 72%
    13:00 +10°C° 0 mm 8 mps 752 mmHg 72%
    14:00 +9°C° 0 mm 8 mps 752 mmHg 75%
    15:00 +9°C° 0 mm 8 mps 752 mmHg 78%
    16:00 +9°C° 0 mm 8 mps 753 mmHg 81%
    17:00 +9°C° 0 mm 8 mps 753 mmHg 82%
    18:00 +9°C° 0 mm 8 mps 754 mmHg 83%
    19:00 +10°C° 0 mm 8 mps 754 mmHg 85%
    20:00 +9°C° 0 mm 7 mps 755 mmHg 86%
    21:00 +9°C° 0 mm 7 mps 755 mmHg 88%
    22:00 +9°C° 0 mm 7 mps 756 mmHg 89%
    23:00 +8°C° 0 mm 6 mps 756 mmHg 90%

    24 November, Friday

    Time Temperature Precipitation Wind Pressure Humidity
    00:00 +8°C° 0 mm 6 mps 756 mmHg 91%
    01:00 +8°C° 0 mm 6 mps 757 mmHg 92%
    02:00 +7°C° 0 mm 5 mps 757 mmHg 93%
    03:00 +7°C° 0 mm 5 mps 757 mmHg 93%
    04:00 +7°C° 0 mm 5 mps 757 mmHg 94%
    05:00 +6°C° 0 mm 5 mps 757 mmHg 94%
    06:00 +6°C° 0 mm 5 mps 757 mmHg 94%
    07:00 +6°C° 0 mm 5 mps 758 mmHg 94%
    08:00 +7°C° 0 mm 5 mps 758 mmHg 92%
    09:00 +7°C° 0 mm 5 mps 758 mmHg 90%
    10:00 +8°C° 0 mm 5 mps 758 mmHg 89%
    11:00 +8°C° 0 mm 5 mps 758 mmHg 87%
    12:00 +9°C° 0 mm 5 mps 758 mmHg 85%
    13:00 +9°C° 0 mm 5 mps 758 mmHg 83%
    14:00 +9°C° 0 mm 5 mps 758 mmHg 86%
    15:00 +8°C° 0 mm 5 mps 758 mmHg 88%
    16:00 +8°C° 0 mm 5 mps 758 mmHg 90%
    17:00 +8°C° 0 mm 5 mps 758 mmHg 89%
    18:00 +7°C° 0 mm 5 mps 758 mmHg 88%
    19:00 +7°C° 0 mm 5 mps 758 mmHg 87%
    20:00 +7°C° 0 mm 5 mps 758 mmHg 87%
    21:00 +7°C° 0 mm 5 mps 758 mmHg 86%
    22:00 +7°C° 0 mm 5 mps 758 mmHg 86%
    23:00 +7°C° 0 mm 5 mps 758 mmHg 85%

    25 November, Saturday

    Time Temperature Precipitation Wind Pressure Humidity
    00:00 +7°C° 0 mm 5 mps 758 mmHg 85%
    01:00 +7°C° 0 mm 5 mps 758 mmHg 85%
    02:00 +7°C° 0 mm 5 mps 758 mmHg 83%
    03:00 +7°C° 0 mm 5 mps 757 mmHg 82%
    04:00 +7°C° 0 mm 6 mps 757 mmHg 81%
    05:00 +7°C° 0 mm 6 mps 757 mmHg 79%
    06:00 +7°C° 0 mm 6 mps 757 mmHg 76%
    07:00 +7°C° 0 mm 6 mps 757 mmHg 74%
    08:00 +7°C° 0 mm 6 mps 757 mmHg 71%
    09:00 +7°C° 0 mm 6 mps 757 mmHg 68%
    10:00 +8°C° 0 mm 6 mps 757 mmHg 66%
    11:00 +8°C° 0 mm 6 mps 756 mmHg 63%
    12:00 +9°C° 0 mm 7 mps 756 mmHg 60%
    13:00 +9°C° 0 mm 7 mps 756 mmHg 57%
    14:00 +9°C° 0 mm 7 mps 755 mmHg 61%
    15:00 +8°C° 0 mm 7 mps 755 mmHg 64%
    16:00 +6°C° 0 mm 8 mps 755 mmHg 68%
    17:00 +6°C° 0 mm 8 mps 755 mmHg 69%
    18:00 +6°C° 0 mm 8 mps 754 mmHg 70%
    19:00 +6°C° 0 mm 8 mps 754 mmHg 72%
    20:00 +6°C° 0 mm 7 mps 754 mmHg 71%
    21:00 +6°C° 0 mm 7 mps 754 mmHg 71%
    22:00 +6°C° 0 mm 7 mps 755 mmHg 70%
    23:00 +6°C° 0 mm 7 mps 755 mmHg 70%
    Show more